Вернуться в каталог

THORAD AGENA D DEB

АктивенLEO
NORAD 4277·DEBRIS·🇺🇸 United States

Запущен Sep 30, 1969 с Vandenberg Space Force Base

Loading…

Ближайшие Пролёты (ближайшие 24 часа)

TLE

СвежийSource: Space-Track

Эпоха: Sep 14, 2026, 13:15 UTC

1  4277U 69082DL  26257.55248398  .00000208  00000-0  15457-3 0  9996
2  4277  70.0218 187.2570 0038308 110.7945 249.7277 14.07443556921075

Отслеживайте THORAD AGENA D DEB в реальном времени с AllMySat

Download on the App Store